Munising, MI

3:18 PM EST on January 24, 2017 (GMT -0500)
Munising

Weather History for KP53 - May, 2013

Change the Weather History Date:

Tuesday, May 21, 2013

  Actual Average (KISQ) Record (KISQ)
Temperature  
Mean Temperature 53 °F -  
Max Temperature 61 °F 62 °F 79 °F (1972)
Min Temperature 43 °F 41 °F 26 °F (2002)
Degree Days  
Heating Degree Days 12    
Growing Degree Days 3 (Base 50)    
Moisture  
Dew Point 51 °F    
Average Humidity 86    
Maximum Humidity 93    
Minimum Humidity 80    
Precipitation  
Precipitation 0.15 in - - ()
Sea Level Pressure  
Sea Level Pressure 29.70 in    
Wind  
Wind Speed 7 mph (SSE)    
Max Wind Speed 16 mph    
Max Gust Speed 28 mph    
Averages and records for this station are not official NWS values.
T = Trace of Precipitation, MM = Missing Value Source: NWS Daily Summary

Daily Weather History Graph

Daily Weather History Graph

Search for Another Location

Airport or City:

Trip Planner

Search our weather history database for the weather conditions in past years. The results will help you decide how hot, cold, wet, or windy it might be!

Date:

Astronomy

May. 21, 2013 Rise Set
Actual Time 6:06 AM EDT 9:20 PM EDT
Civil Twilight 5:30 AM EDT 9:57 PM EDT
Nautical Twilight 4:42 AM EDT 10:44 PM EDT
Astronomical Twilight 3:43 AM EDT 11:44 PM EDT
Moon 5:22 PM EDT (5/21) 3:48 AM EDT (5/21)
Length of Visible Light 16h 27m
Length of Day
15h 14m
Waxing Gibbous, 84% of the Moon is Illuminated
May 21
Waxing Gibbous
May 25
Full
May 31
Last Quarter
Jun 8
New
Jun 16
First Quarter

Hourly Weather History & Observations

Time (EDT) Temp. Windchill Dew Point Humidity Pressure Visibility Wind Dir Wind Speed Gust Speed Precip Events Conditions
12:56 AM 59.0 °F - 55.0 °F 87% 29.73 in - South 10.4 mph 19.6 mph N/A   Unknown
1:56 AM 60.1 °F - 55.9 °F 86% 29.74 in - Calm Calm - N/A   Unknown
2:56 AM 57.9 °F - 55.0 °F 90% 29.73 in - Variable 3.5 mph - N/A   Unknown
3:56 AM 46.0 °F 42.5 °F 44.1 °F 93% 29.72 in - North 6.9 mph - N/A   Unknown
4:56 AM 46.0 °F - 43.0 °F 89% 29.71 in - Calm Calm - N/A   Unknown
5:56 AM 57.9 °F - 55.0 °F 90% 29.72 in - SSE 9.2 mph 20.7 mph N/A   Unknown
6:56 AM 57.9 °F - 54.0 °F 87% 29.71 in - Variable 4.6 mph 21.9 mph 0.08 in   Unknown
7:56 AM 57.0 °F - 53.1 °F 87% 29.68 in - Variable 5.8 mph - 0.04 in   Unknown
8:56 AM 59.0 °F - 54.0 °F 83% 29.69 in - SSE 16.1 mph 21.9 mph N/A   Unknown
9:56 AM 57.9 °F - 53.1 °F 84% 29.69 in - SE 9.2 mph 17.3 mph 0.01 in   Unknown
10:56 AM 59.0 °F - 53.1 °F 81% 29.68 in - SSE 11.5 mph 27.6 mph N/A   Unknown
11:56 AM 57.9 °F - 53.1 °F 84% 29.69 in - SSE 13.8 mph 24.2 mph N/A   Unknown
12:56 PM 59.0 °F - 54.0 °F 83% 29.69 in - South 11.5 mph 17.3 mph N/A   Unknown
1:56 PM 60.1 °F - 54.0 °F 80% 29.68 in - South 10.4 mph 18.4 mph N/A   Unknown
2:56 PM 61.0 °F - 55.0 °F 81% 29.66 in - South 6.9 mph - N/A   Unknown
3:56 PM 61.0 °F - 55.0 °F 81% 29.67 in - SSE 11.5 mph 18.4 mph N/A   Unknown
4:56 PM 61.0 °F - 55.0 °F 81% 29.67 in - SSE 9.2 mph - N/A   Unknown
5:56 PM 61.0 °F - 55.0 °F 81% 29.68 in - South 6.9 mph - N/A   Unknown
6:56 PM 46.9 °F - 43.0 °F 86% 29.69 in - NE 12.7 mph - N/A   Unknown
7:56 PM 48.0 °F - 45.0 °F 89% 29.68 in - Calm Calm - N/A   Unknown
8:56 PM 46.9 °F - 43.0 °F 86% 29.68 in - Calm Calm - N/A   Unknown
9:56 PM 46.0 °F - 42.1 °F 86% 29.70 in - Calm Calm - N/A   Unknown
10:56 PM 45.0 °F 41.2 °F 42.1 °F 90% 29.73 in - North 6.9 mph - N/A   Unknown
11:56 PM 43.0 °F 40.3 °F 41.0 °F 93% 29.74 in - North 4.6 mph - 0.02 in   Unknown